Location: Aigremont
(47.7188°N, 3.8925°E)
Time: 17:55:49
(UTC+00:00)

USA 116 - Pass Details

Date: 18 February 2020
Orbit: 405 x 834 km, 97.9° (Epoch: 18 November)

Event Time Altitude Azimuth Distance (km) Brightness Sun altitude
Rises 05:55:37 0° 191° (S) 2,409 7.0 -9.2°
Reaches altitude 10° 05:57:54 10° 205° (SSW) 1,509 5.8 -8.8°
Maximum altitude 06:00:35 25° 263° (W) 887 4.2 -8.3°
Drops below altitude 10° 06:03:13 10° 321° (NW) 1,476 5.5 -7.9°
Sets 06:05:25 0° 335° (NNW) 2,343 6.6 -7.5°
